Volver al catálogo

STARLINK-30704

ActivoComunicacionesVLEO
NORAD 57946·PAYLOAD·🇺🇸 United States

Lanzado Sep 25, 2023 desde Vandenberg Space Force Base

Loading…

Próximos Pases (próximas 24 horas)

TLE

ActualizadoSource: CelesTrak SupGP

Época: Sep 14, 2026, 21:11 UTC

1 57946C 23148M   26257.88312500  .00012395  00000+0  36625-3 0  2579
2 57946  53.1584 299.6257 0001104  93.0474  28.0389 15.34380146    18

Sigue STARLINK-30704 en tiempo real con AllMySat

Download on the App Store